Location: Rounton
(54.4000°N, 1.3500°W)
Time: 01:58:31
(UTC+00:00)

Transit 4A - Pass Details

Date: 06 December 2021
Orbit: 864 x 981 km, 66.8° (Epoch: 19 January)

Event Time Altitude Azimuth Distance (km) Brightness Sun altitude
Rises 20:25:25 0° 238° (WSW) 3,481 11.3 -39.6°
Reaches altitude 10° 20:27:56 10° 243° (WSW) 2,559 10.6 -39.9°
Enters shadow 20:29:46 21° 249° (WSW) 1,921 9.9 -40.2°
